Вернуться в каталог

STARLINK-3236

АктивенСвязьVLEO
NORAD 49750·PAYLOAD·🇺🇸 United States

Запущен Dec 2, 2021 с Cape Canaveral Space Force Station

Loading…

Ближайшие Пролёты (ближайшие 24 часа)

TLE

СвежийSource: CelesTrak SupGP

Эпоха: Sep 14, 2026, 22:06 UTC

1 49750C 21115AC  26257.92131944 -.00029110  00000+0 -93630-3 0  2575
2 49750  53.1594   5.7968 0000999  82.4851 290.3432 15.31709961    10

Отслеживайте STARLINK-3236 в реальном времени с AllMySat

Download on the App Store